TimeMST,TemperatureF,Dew PointF,Humidity,Sea Level PressureIn,VisibilityMPH,Wind Direction,Wind SpeedMPH,Gust SpeedMPH,PrecipitationIn,Events,Conditions,WindDirDegrees,DateUTC
12:53 AM,14.0,9.0,80,30.42,10.0,West,5.8,-,N/A,,Mostly Cloudy,280,2013-01-03 07:53:00
1:53 AM,10.9,7.0,84,30.44,10.0,WNW,3.5,-,N/A,,Clear,290,2013-01-03 08:53:00
2:53 AM,16.0,9.0,74,30.43,10.0,Calm,Calm,-,N/A,,Partly Cloudy,0,2013-01-03 09:53:00
3:53 AM,12.0,7.0,80,30.44,10.0,SW,4.6,-,N/A,,Mostly Cloudy,220,2013-01-03 10:53:00
5:53 AM,3.9,-0.0,84,30.50,10.0,WSW,3.5,-,N/A,,Mostly Cloudy,240,2013-01-03 12:53:00
6:53 AM,5.0,1.0,84,30.51,10.0,SW,6.9,-,N/A,,Clear,230,2013-01-03 13:53:00
7:53 AM,8.1,3.9,83,30.52,10.0,SSW,11.5,-,N/A,,Clear,200,2013-01-03 14:53:00
8:53 AM,15.1,9.0,77,30.52,10.0,SSW,6.9,-,N/A,,Clear,200,2013-01-03 15:53:00
9:53 AM,21.0,10.9,65,30.52,10.0,West,6.9,-,N/A,,Clear,260,2013-01-03 16:53:00
10:53 AM,26.1,16.0,66,30.47,10.0,SW,5.8,-,N/A,,Clear,230,2013-01-03 17:53:00
11:53 AM,30.9,16.0,54,30.40,10.0,WSW,6.9,-,N/A,,Clear,240,2013-01-03 18:53:00
12:53 PM,33.1,17.1,52,30.36,10.0,WSW,10.4,-,N/A,,Clear,250,2013-01-03 19:53:00
1:53 PM,35.1,18.0,50,30.35,10.0,SW,11.5,-,N/A,,Clear,230,2013-01-03 20:53:00
2:53 PM,35.1,18.0,50,30.32,10.0,SSW,6.9,-,N/A,,Clear,210,2013-01-03 21:53:00
3:53 PM,33.1,19.0,56,30.34,10.0,South,6.9,-,N/A,,Clear,190,2013-01-03 22:53:00
4:53 PM,27.0,17.1,66,30.37,10.0,South,11.5,-,N/A,,Clear,170,2013-01-03 23:53:00
5:53 PM,19.9,15.1,81,30.40,10.0,SW,8.1,-,N/A,,Clear,220,2013-01-04 00:53:00
6:53 PM,17.1,12.0,81,30.40,10.0,SSW,11.5,-,N/A,,Clear,210,2013-01-04 01:53:00
7:53 PM,14.0,10.0,84,30.41,10.0,Calm,Calm,-,N/A,,Clear,0,2013-01-04 02:53:00
8:53 PM,15.1,10.0,80,30.38,10.0,West,4.6,-,N/A,,Clear,280,2013-01-04 03:53:00
9:53 PM,10.0,6.1,84,30.39,10.0,SW,8.1,-,N/A,,Clear,230,2013-01-04 04:53:00
10:53 PM,7.0,3.0,84,30.39,10.0,WSW,3.5,-,N/A,,Clear,240,2013-01-04 05:53:00
11:53 PM,-0.0,-4.0,83,30.38,10.0,WSW,4.6,-,N/A,,Clear,250,2013-01-04 06:53:00